Location: ?????? ??????
(44.3742°N, 135.2221°E)
Time: 10:56:02
(UTC+00:00)

CENTAUR R/B - Pass Details

Date: 19 May 2025
Orbit: 645 x 1537 km, 63.4° (Epoch: 14 June)

Event Time Altitude Azimuth Distance (km) Brightness Sun altitude
Rises 14:17:41 0° 322° (NW) 4,105 6.7 -25.1°
Reaches altitude 10° 14:20:23 10° 328° (NNW) 3,256 6.1 -25.2°
Maximum altitude 14:28:19 52° 44° (NE) 1,730 3.9 -25.4°
Enters shadow 14:36:19 14° 116° (ESE) 3,389 5.0 -25.6°
